This is the latest recevied weather packets stored in our database for station/object KN6ETB-1. If no packets are shown the sender has not sent any weather packets the latest 10 day(s).
| Time | Temp. | Humidity | Pressure | Rain* | Wind** | Luminosity | Snow |
|---|---|---|---|---|---|---|---|
| 1777735839 | 13.33° C | 86% | 1009.3 hPa | 0 mm | - | 145 W/m² | - |
| 1777735537 | 13.33° C | 86% | 1009.2 hPa | 0 mm | - | 146 W/m² | - |
| 1777735234 | 13.33° C | 86% | 1009 hPa | 0 mm | - | 141 W/m² | - |
| 1777734931 | 13.33° C | 86% | 1009.2 hPa | 0 mm | - | 131 W/m² | - |
| 1777734628 | 13.33° C | 86% | 1009.2 hPa | 0 mm | - | 114 W/m² | - |
| 1777734326 | 13.33° C | 86% | 1009.1 hPa | 0 mm | - | 95 W/m² | - |
| 1777734021 | 13.33° C | 86% | 1009.1 hPa | 0 mm | - | 81 W/m² | - |
| 1777733718 | 13.33° C | 86% | 1009.2 hPa | 0 mm | - | 73 W/m² | - |
| 1777733415 | 13.33° C | 86% | 1009.1 hPa | 0 mm | - | 68 W/m² | - |
| 1777733111 | 13.33° C | 86% | 1009.1 hPa | 0 mm | - | 70 W/m² | - |
| 1777732808 | 13.33° C | 86% | 1008.9 hPa | 0 mm | - | 73 W/m² | - |
| 1777732504 | 13.33° C | 86% | 1008.8 hPa | 0 mm | - | 65 W/m² | - |
| 1777732202 | 13.33° C | 86% | 1008.7 hPa | 0 mm | - | 58 W/m² | - |
| 1777731899 | 12.78° C | 86% | 1008.7 hPa | 0 mm | - | 51 W/m² | - |
| 1777731595 | 13.33° C | 86% | 1008.5 hPa | 0 mm | - | 47 W/m² | - |
| 1777731294 | 12.78° C | 86% | 1008.5 hPa | 0 mm | - | 54 W/m² | - |
| 1777730991 | 12.78° C | 86% | 1008.4 hPa | 0 mm | - | 52 W/m² | - |
| 1777730690 | 12.78° C | 87% | 1008.5 hPa | 0 mm | - | 46 W/m² | - |
| 1777730385 | 12.78° C | 87% | 1008.5 hPa | 0 mm | - | 39 W/m² | - |
| 1777730081 | 12.78° C | 86% | 1008.4 hPa | 0 mm | - | 35 W/m² | - |
| 1777729778 | 12.78° C | 87% | 1008.6 hPa | 0 mm | - | 30 W/m² | - |
| 1777729475 | 12.78° C | 87% | 1008.4 hPa | 0 mm | - | 25 W/m² | - |
| 1777729172 | 12.78° C | 87% | 1008.2 hPa | 0 mm | - | 19 W/m² | - |
| 1777728868 | 12.78° C | 87% | 1008.1 hPa | 0 mm | - | 13 W/m² | - |
| 1777728565 | 12.78° C | 87% | 1008.1 hPa | 0 mm | - | 9 W/m² | - |
* Rain latest hour (hover to see other rain measurements)
** Current wind speed in m/s (hover to see current wind gust speed)